Time,TemperatureF,DewpointF,PressureIn,WindDirection,WindDirectionDegrees,WindSpeedMPH,WindSpeedGustMPH,Humidity,HourlyPrecipIn,Conditions,Clouds,dailyrainin,SoftwareType,DateUTC
2013-07-12 00:00:00,69.3,48.8,29.79,North,0,2.5,2.5,48,0.00,,SKC,0.00,VWS V14.01,2013-07-11 21:00:00,
2013-07-12 00:05:00,68.9,49.0,29.82,North,0,2.0,2.0,49,0.00,,SKC,0.00,VWS V14.01,2013-07-11 21:05:00,
2013-07-12 00:10:00,68.7,49.3,29.82,North,0,1.1,2.2,50,0.00,,SKC,0.00,VWS V14.01,2013-07-11 21:10:00,
2013-07-12 00:15:00,68.5,49.7,29.82,NNE,22,2.0,2.0,51,0.00,,SKC,0.00,VWS V14.01,2013-07-11 21:15:00,
2013-07-12 00:21:00,68.5,49.7,29.82,North,0,1.1,1.6,51,0.00,,SKC,0.00,VWS V14.01,2013-07-11 21:21:00,
2013-07-12 00:27:00,68.5,50.2,29.82,NE,45,0.0,0.0,52,0.00,,SKC,0.00,VWS V14.01,2013-07-11 21:27:00,
2013-07-12 00:32:00,68.4,51.1,29.82,WNW,292,0.0,0.0,54,0.00,,SKC,0.00,VWS V14.01,2013-07-11 21:32:00,
2013-07-12 00:37:00,68.4,51.6,29.82,NNE,22,0.0,0.0,55,0.00,,SKC,0.00,VWS V14.01,2013-07-11 21:37:00,
2013-07-12 00:42:00,68.4,51.6,29.82,NNE,22,0.0,0.0,55,0.00,,SKC,0.00,VWS V14.01,2013-07-11 21:42:00,
2013-07-12 00:48:00,68.2,51.9,29.82,WNW,292,0.0,0.0,56,0.00,,SKC,0.00,VWS V14.01,2013-07-11 21:48:00,
2013-07-12 00:53:00,68.2,51.9,29.82,WNW,292,0.9,1.1,56,0.00,,SKC,0.00,VWS V14.01,2013-07-11 21:53:00,
2013-07-12 00:58:00,68.0,52.2,29.82,WNW,292,0.0,0.0,57,0.00,,SKC,0.00,VWS V14.01,2013-07-11 21:58:00,
2013-07-12 01:03:00,68.0,52.7,29.82,WNW,292,0.0,0.0,58,0.00,,SKC,0.00,VWS V14.01,2013-07-11 22:03:00,
2013-07-12 01:09:00,68.0,52.7,29.82,NW,315,0.0,0.0,58,0.00,,SKC,0.00,VWS V14.01,2013-07-11 22:09:00,
2013-07-12 01:14:00,68.0,53.2,29.82,NNW,338,0.0,0.0,59,0.00,,SKC,0.00,VWS V14.01,2013-07-11 22:14:00,
2013-07-12 01:20:00,67.8,53.0,29.82,NNW,338,0.0,0.0,59,0.00,,SKC,0.00,VWS V14.01,2013-07-11 22:20:00,
2013-07-12 01:25:00,67.6,52.8,29.82,WNW,292,1.3,1.6,59,0.00,,SKC,0.00,VWS V14.01,2013-07-11 22:25:00,
2013-07-12 01:31:00,67.6,52.8,29.82,WNW,292,0.0,0.0,59,0.00,,SKC,0.00,VWS V14.01,2013-07-11 22:31:00,
2013-07-12 01:36:00,67.6,53.3,29.85,WNW,292,0.0,0.0,60,0.00,,SKC,0.00,VWS V14.01,2013-07-11 22:36:00,
2013-07-12 01:41:00,67.5,53.1,29.85,WNW,292,0.0,0.0,60,0.00,,SKC,0.00,VWS V14.01,2013-07-11 22:41:00,
2013-07-12 01:46:00,67.5,53.6,29.85,WNW,292,0.0,0.0,61,0.00,,SKC,0.00,VWS V14.01,2013-07-11 22:46:00,
2013-07-12 01:51:00,67.3,53.4,29.85,WNW,292,0.0,0.0,61,0.00,,SKC,0.00,VWS V14.01,2013-07-11 22:51:00,
2013-07-12 01:56:00,67.5,53.6,29.85,WNW,292,0.0,0.0,61,0.00,,SKC,0.00,VWS V14.01,2013-07-11 22:56:00,
2013-07-12 02:02:00,67.5,54.0,29.85,WNW,292,0.0,0.0,62,0.00,,SKC,0.00,VWS V14.01,2013-07-11 23:02:00,
2013-07-12 02:07:00,67.5,54.0,29.85,WNW,292,0.0,0.0,62,0.00,,SKC,0.00,VWS V14.01,2013-07-11 23:07:00,
2013-07-12 02:12:00,67.6,54.2,29.82,SSW,202,0.9,2.0,62,0.00,,SKC,0.00,VWS V14.01,2013-07-11 23:12:00,
2013-07-12 02:18:00,68.0,54.5,29.82,SE,135,1.1,1.1,62,0.00,,SKC,0.00,VWS V14.01,2013-07-11 23:18:00,
2013-07-12 02:23:00,68.0,54.5,29.82,SE,135,0.0,0.0,62,0.00,,SKC,0.00,VWS V14.01,2013-07-11 23:23:00,
2013-07-12 02:28:00,67.6,54.2,29.82,SE,135,0.0,0.0,62,0.00,,SKC,0.00,VWS V14.01,2013-07-11 23:28:00,
2013-07-12 02:34:00,67.5,54.4,29.82,NW,315,0.0,0.0,63,0.00,,SKC,0.00,VWS V14.01,2013-07-11 23:34:00,
2013-07-12 02:39:00,66.9,53.5,29.82,WNW,292,0.0,0.0,62,0.00,,SKC,0.00,VWS V14.01,2013-07-11 23:39:00,
2013-07-12 02:44:00,66.9,53.5,29.82,NE,45,0.0,0.0,62,0.00,,SKC,0.00,VWS V14.01,2013-07-11 23:44:00,
2013-07-12 02:50:00,66.9,53.9,29.82,NE,45,0.0,0.0,63,0.00,,SKC,0.00,VWS V14.01,2013-07-11 23:50:00,
2013-07-12 02:55:00,66.7,54.2,29.82,NE,45,0.0,0.0,64,0.00,,SKC,0.00,VWS V14.01,2013-07-11 23:55:00,
2013-07-12 03:00:00,66.6,54.0,29.82,North,0,0.0,0.0,64,0.00,,SKC,0.00,VWS V14.01,2013-07-12 00:00:00,
2013-07-12 03:06:00,66.6,54.0,29.82,NW,315,2.0,2.2,64,0.00,,SKC,0.00,VWS V14.01,2013-07-12 00:06:00,
2013-07-12 03:11:00,66.2,53.7,29.82,WNW,292,2.0,2.5,64,0.00,,SKC,0.00,VWS V14.01,2013-07-12 00:11:00,
2013-07-12 03:16:00,66.0,53.5,29.82,NNW,338,0.0,0.0,64,0.00,,SKC,0.00,VWS V14.01,2013-07-12 00:16:00,
2013-07-12 03:21:00,65.8,53.8,29.79,NNW,338,0.0,0.0,65,0.00,,SKC,0.00,VWS V14.01,2013-07-12 00:21:00,
2013-07-12 03:26:00,65.8,53.8,29.79,North,0,0.0,0.0,65,0.00,,SKC,0.00,VWS V14.01,2013-07-12 00:26:00,
2013-07-12 03:32:00,65.7,54.0,29.79,NNW,338,0.0,0.0,66,0.00,,SKC,0.00,VWS V14.01,2013-07-12 00:32:00,
2013-07-12 03:37:00,65.5,53.8,29.79,NNW,338,0.0,0.0,66,0.00,,SKC,0.00,VWS V14.01,2013-07-12 00:37:00,
2013-07-12 03:42:00,65.3,53.7,29.79,NE,45,0.0,0.0,66,0.00,,SKC,0.00,VWS V14.01,2013-07-12 00:42:00,
2013-07-12 03:47:00,64.9,53.3,29.79,WNW,292,0.0,0.0,66,0.00,,SKC,0.00,VWS V14.01,2013-07-12 00:47:00,
2013-07-12 03:52:00,64.9,53.3,29.79,ENE,68,0.0,0.0,66,0.00,,SKC,0.00,VWS V14.01,2013-07-12 00:52:00,
2013-07-12 03:57:00,64.8,53.2,29.79,ENE,68,0.0,0.0,66,0.00,,SKC,0.00,VWS V14.01,2013-07-12 00:57:00,
2013-07-12 04:02:00,64.9,53.7,29.79,ENE,68,0.0,0.0,67,0.00,,SKC,0.00,VWS V14.01,2013-07-12 01:02:00,
2013-07-12 04:08:00,64.8,52.7,29.79,ESE,112,1.6,1.6,65,0.00,,SKC,0.00,VWS V14.01,2013-07-12 01:08:00,
2013-07-12 04:13:00,64.8,53.2,29.79,ESE,112,0.0,0.0,66,0.00,,SKC,0.00,VWS V14.01,2013-07-12 01:13:00,
2013-07-12 04:18:00,64.6,53.0,29.79,East,90,2.7,2.7,66,0.00,,SKC,0.00,VWS V14.01,2013-07-12 01:18:00,
2013-07-12 04:23:00,64.2,51.8,29.79,East,90,2.5,3.1,64,0.00,,SKC,0.00,VWS V14.01,2013-07-12 01:23:00,
2013-07-12 04:28:00,64.2,52.2,29.79,ENE,68,2.5,2.5,65,0.00,,SKC,0.00,VWS V14.01,2013-07-12 01:28:00,
2013-07-12 04:35:00,63.9,51.9,29.79,East,90,1.3,2.5,65,0.00,,SKC,0.00,VWS V14.01,2013-07-12 01:35:00,
2013-07-12 04:40:00,63.9,52.3,29.79,NE,45,0.0,0.0,66,0.00,,SKC,0.00,VWS V14.01,2013-07-12 01:40:00,
2013-07-12 04:45:00,63.9,52.7,29.79,ESE,112,2.5,2.5,67,0.00,,SKC,0.00,VWS V14.01,2013-07-12 01:45:00,
2013-07-12 04:51:00,63.7,52.5,29.82,East,90,2.2,2.2,67,0.00,,SKC,0.00,VWS V14.01,2013-07-12 01:51:00,
2013-07-12 04:56:00,63.7,52.5,29.82,East,90,2.7,3.1,67,0.00,,SKC,0.00,VWS V14.01,2013-07-12 01:56:00,
2013-07-12 05:01:00,63.7,52.5,29.82,East,90,1.3,1.3,67,0.00,,SKC,0.00,VWS V14.01,2013-07-12 02:01:00,
2013-07-12 05:07:00,63.7,52.9,29.82,NE,45,2.0,2.2,68,0.00,,SKC,0.00,VWS V14.01,2013-07-12 02:07:00,
2013-07-12 05:12:00,63.7,52.9,29.82,ESE,112,2.0,2.0,68,0.00,,SKC,0.00,VWS V14.01,2013-07-12 02:12:00,
2013-07-12 05:17:00,63.7,53.3,29.82,East,90,1.6,1.6,69,0.00,,SKC,0.00,VWS V14.01,2013-07-12 02:17:00,
2013-07-12 05:22:00,63.9,53.5,29.82,East,90,2.2,2.2,69,0.00,,SKC,0.00,VWS V14.01,2013-07-12 02:22:00,
2013-07-12 05:27:00,63.9,53.5,29.82,ENE,68,0.0,1.6,69,0.00,,SKC,0.00,VWS V14.01,2013-07-12 02:27:00,
2013-07-12 05:33:00,63.9,53.9,29.82,ENE,68,0.0,0.0,70,0.00,,SKC,0.00,VWS V14.01,2013-07-12 02:33:00,
2013-07-12 05:39:00,63.7,54.1,29.82,ENE,68,0.0,2.2,71,0.00,,SKC,0.00,VWS V14.01,2013-07-12 02:39:00,
2013-07-12 05:44:00,63.9,54.3,29.82,ENE,68,0.0,1.6,71,0.00,,SKC,0.00,VWS V14.01,2013-07-12 02:44:00,
2013-07-12 05:49:00,63.7,54.1,29.82,East,90,0.0,0.0,71,0.00,,SKC,0.00,VWS V14.01,2013-07-12 02:49:00,
2013-07-12 05:55:00,63.9,54.7,29.82,East,90,0.0,0.0,72,0.00,,SKC,0.00,VWS V14.01,2013-07-12 02:55:00,
2013-07-12 06:00:00,63.9,54.7,29.82,East,90,0.0,0.0,72,0.00,,SKC,0.00,VWS V14.01,2013-07-12 03:00:00,
2013-07-12 06:05:00,63.9,55.0,29.82,East,90,0.0,0.0,73,0.00,,SKC,0.00,VWS V14.01,2013-07-12 03:05:00,
2013-07-12 06:10:00,63.9,55.0,29.82,SSW,202,1.6,2.2,73,0.00,,SKC,0.00,VWS V14.01,2013-07-12 03:10:00,
2013-07-12 06:15:00,63.9,55.0,29.82,SSW,202,0.0,0.0,73,0.00,,SKC,0.00,VWS V14.01,2013-07-12 03:15:00,
2013-07-12 06:21:00,63.9,55.0,29.82,SSW,202,0.0,0.0,73,0.00,,SKC,0.00,VWS V14.01,2013-07-12 03:21:00,
2013-07-12 06:26:00,64.2,55.8,29.82,SSE,158,0.0,0.9,74,0.00,,SKC,0.00,VWS V14.01,2013-07-12 03:26:00,
2013-07-12 06:32:00,64.2,55.8,29.82,ENE,68,2.7,2.7,74,0.00,,SKC,0.00,VWS V14.01,2013-07-12 03:32:00,
2013-07-12 06:37:00,64.0,55.6,29.82,NE,45,0.0,2.5,74,0.00,,SKC,0.00,VWS V14.01,2013-07-12 03:37:00,
2013-07-12 06:43:00,63.9,55.4,29.82,NE,45,0.0,0.0,74,0.00,,SKC,0.00,VWS V14.01,2013-07-12 03:43:00,
2013-07-12 06:48:00,64.0,55.6,29.82,NE,45,0.0,0.0,74,0.00,,SKC,0.00,VWS V14.01,2013-07-12 03:48:00,
2013-07-12 06:54:00,64.2,56.1,29.82,NE,45,0.0,0.0,75,0.00,,SKC,0.00,VWS V14.01,2013-07-12 03:54:00,
2013-07-12 06:59:00,64.4,56.3,29.82,NE,45,0.0,1.1,75,0.00,,SKC,0.00,VWS V14.01,2013-07-12 03:59:00,
2013-07-12 07:01:00,64.4,56.3,29.82,NE,45,1.6,1.6,75,0.00,,SKC,0.00,VWS V14.01,2013-07-12 04:01:00,
2013-07-12 07:02:00,64.4,56.3,29.82,NE,45,0.0,1.6,75,0.00,,SKC,0.00,VWS V14.01,2013-07-12 04:02:00,
2013-07-12 07:03:00,64.4,56.3,29.82,NE,45,0.0,0.0,75,0.00,,SKC,0.00,VWS V14.01,2013-07-12 04:03:00,
2013-07-12 07:05:00,64.4,56.3,29.82,West,270,0.0,0.0,75,0.00,,SKC,0.00,VWS V14.01,2013-07-12 04:05:00,
2013-07-12 07:10:00,64.4,56.7,29.82,NW,315,0.9,0.9,76,0.00,,SKC,0.00,VWS V14.01,2013-07-12 04:10:00,
2013-07-12 07:15:00,64.4,56.3,29.82,NW,315,0.0,0.0,75,0.00,,SKC,0.00,VWS V14.01,2013-07-12 04:15:00,
2013-07-12 07:20:00,64.2,56.1,29.82,WNW,292,0.0,0.0,75,0.00,,SKC,0.00,VWS V14.01,2013-07-12 04:20:00,
2013-07-12 07:25:00,64.0,56.0,29.82,NNW,338,0.0,0.0,75,0.00,,SKC,0.00,VWS V14.01,2013-07-12 04:25:00,
2013-07-12 07:30:00,63.9,55.8,29.82,WNW,292,0.0,0.0,75,0.00,,SKC,0.00,VWS V14.01,2013-07-12 04:30:00,
2013-07-12 07:35:00,63.9,55.8,29.82,NW,315,0.0,0.0,75,0.00,,SKC,0.00,VWS V14.01,2013-07-12 04:35:00,
2013-07-12 07:40:00,64.0,56.3,29.82,NW,315,0.0,1.1,76,0.00,,SKC,0.00,VWS V14.01,2013-07-12 04:40:00,
2013-07-12 07:45:00,64.2,56.5,29.82,NNW,338,1.1,1.1,76,0.00,,SKC,0.00,VWS V14.01,2013-07-12 04:45:00,
2013-07-12 07:50:00,64.9,57.2,29.82,NNW,338,0.0,0.0,76,0.00,,SKC,0.00,VWS V14.01,2013-07-12 04:50:00,
2013-07-12 07:55:00,65.7,58.3,29.82,WNW,292,3.1,3.1,77,0.00,,SKC,0.00,VWS V14.01,2013-07-12 04:55:00,
2013-07-12 08:00:00,66.0,57.9,29.82,NW,315,2.7,3.1,75,0.00,,SKC,0.00,VWS V14.01,2013-07-12 05:00:00,
2013-07-12 08:06:00,66.7,58.2,29.85,WNW,292,2.0,2.0,74,0.00,,SKC,0.00,VWS V14.01,2013-07-12 05:06:00,
2013-07-12 08:11:00,67.6,58.7,29.85,NNE,22,3.1,3.1,73,0.00,,SKC,0.00,VWS V14.01,2013-07-12 05:11:00,
2013-07-12 08:16:00,68.4,58.6,29.85,NNW,338,3.6,3.6,71,0.00,,SKC,0.00,VWS V14.01,2013-07-12 05:16:00,
2013-07-12 08:21:00,69.3,59.1,29.85,NNW,338,2.9,3.1,70,0.00,,SKC,0.00,VWS V14.01,2013-07-12 05:21:00,
2013-07-12 08:26:00,69.8,59.2,29.85,NNE,22,0.0,2.0,69,0.00,,SKC,0.00,VWS V14.01,2013-07-12 05:26:00,
2013-07-12 08:31:00,70.3,59.3,29.85,North,0,2.5,3.6,68,0.00,,SKC,0.00,VWS V14.01,2013-07-12 05:31:00,
2013-07-12 08:36:00,71.1,59.6,29.85,NW,315,1.1,2.5,67,0.00,,SKC,0.00,VWS V14.01,2013-07-12 05:36:00,
2013-07-12 08:41:00,71.8,59.0,29.85,East,90,0.0,2.9,64,0.00,,SKC,0.00,VWS V14.01,2013-07-12 05:41:00,
2013-07-12 08:46:00,72.5,58.3,29.85,NNW,338,2.5,3.6,61,0.00,,SKC,0.00,VWS V14.01,2013-07-12 05:46:00,
2013-07-12 08:51:00,73.0,57.9,29.82,NE,45,2.5,2.5,59,0.00,,SKC,0.00,VWS V14.01,2013-07-12 05:51:00,
2013-07-12 08:56:00,73.4,57.3,29.82,NNE,22,3.1,3.1,57,0.00,,SKC,0.00,VWS V14.01,2013-07-12 05:56:00,
2013-07-12 09:01:00,73.8,57.1,29.82,ENE,68,2.9,3.1,56,0.00,,SKC,0.00,VWS V14.01,2013-07-12 06:01:00,
2013-07-12 09:06:00,74.1,56.4,29.82,ENE,68,1.1,2.7,54,0.00,,SKC,0.00,VWS V14.01,2013-07-12 06:06:00,
2013-07-12 09:12:00,75.0,56.2,29.85,NE,45,1.3,1.3,52,0.00,,SKC,0.00,VWS V14.01,2013-07-12 06:12:00,
2013-07-12 09:17:00,75.4,55.5,29.85,NNE,22,2.0,2.0,50,0.00,,SKC,0.00,VWS V14.01,2013-07-12 06:17:00,
2013-07-12 09:22:00,75.9,55.4,29.85,WNW,292,2.9,2.9,49,0.00,,SKC,0.00,VWS V14.01,2013-07-12 06:22:00,
2013-07-12 09:27:00,76.1,55.6,29.85,NW,315,3.4,3.4,49,0.00,,SKC,0.00,VWS V14.01,2013-07-12 06:27:00,
2013-07-12 09:32:00,76.6,54.9,29.85,WNW,292,1.1,2.9,47,0.00,,SKC,0.00,VWS V14.01,2013-07-12 06:32:00,
2013-07-12 09:37:00,77.4,54.4,29.85,NNE,22,3.1,3.1,45,0.00,,SKC,0.00,VWS V14.01,2013-07-12 06:37:00,
2013-07-12 09:42:00,78.1,55.0,29.85,West,270,3.1,3.1,45,0.00,,SKC,0.00,VWS V14.01,2013-07-12 06:42:00,
2013-07-12 09:47:00,78.8,53.1,29.85,NE,45,2.9,2.9,41,0.00,,SKC,0.00,VWS V14.01,2013-07-12 06:47:00,
2013-07-12 09:52:00,79.2,52.8,29.85,East,90,3.8,6.3,40,0.00,,SKC,0.00,VWS V14.01,2013-07-12 06:52:00,
2013-07-12 09:57:00,79.3,53.0,29.85,NNW,338,6.3,6.3,40,0.00,,SKC,0.00,VWS V14.01,2013-07-12 06:57:00,
2013-07-12 10:02:00,80.4,51.8,29.85,NNW,338,2.9,2.9,37,0.00,,SKC,0.00,VWS V14.01,2013-07-12 07:02:00,
2013-07-12 10:07:00,80.4,51.0,29.85,North,0,2.9,2.9,36,0.00,,SKC,0.00,VWS V14.01,2013-07-12 07:07:00,
2013-07-12 10:12:00,81.1,50.9,29.85,NNE,22,3.8,4.0,35,0.00,,SKC,0.00,VWS V14.01,2013-07-12 07:12:00,
2013-07-12 10:17:00,81.0,50.0,29.85,NE,45,4.9,4.9,34,0.00,,SKC,0.00,VWS V14.01,2013-07-12 07:17:00,
2013-07-12 10:23:00,81.7,49.0,29.85,East,90,5.6,5.6,32,0.00,,SKC,0.00,VWS V14.01,2013-07-12 07:23:00,
2013-07-12 10:28:00,82.0,48.5,29.85,ENE,68,5.6,7.6,31,0.00,,SKC,0.00,VWS V14.01,2013-07-12 07:28:00,
2013-07-12 10:33:00,82.2,47.7,29.85,NE,45,4.9,4.9,30,0.00,,SKC,0.00,VWS V14.01,2013-07-12 07:33:00,
2013-07-12 10:38:00,82.9,47.5,29.85,ENE,68,4.7,4.7,29,0.00,,SKC,0.00,VWS V14.01,2013-07-12 07:38:00,
2013-07-12 10:43:00,83.5,47.9,29.85,ENE,68,7.2,7.2,29,0.00,,SKC,0.00,VWS V14.01,2013-07-12 07:43:00,
2013-07-12 10:48:00,83.3,46.8,29.85,NNE,22,4.0,4.0,28,0.00,,SKC,0.00,VWS V14.01,2013-07-12 07:48:00,
2013-07-12 10:53:00,84.2,46.6,29.88,NE,45,4.0,4.0,27,0.00,,SKC,0.00,VWS V14.01,2013-07-12 07:53:00,
2013-07-12 10:58:00,84.6,45.9,29.88,NE,45,3.8,4.0,26,0.00,,SKC,0.00,VWS V14.01,2013-07-12 07:58:00,
2013-07-12 11:03:00,84.2,42.4,29.88,East,90,6.3,6.3,23,0.00,,SKC,0.00,VWS V14.01,2013-07-12 08:03:00,
2013-07-12 11:08:00,84.2,41.3,29.88,ENE,68,8.5,8.5,22,0.00,,SKC,0.00,VWS V14.01,2013-07-12 08:08:00,
2013-07-12 11:13:00,84.9,43.0,29.88,ENE,68,5.8,6.5,23,0.00,,SKC,0.00,VWS V14.01,2013-07-12 08:13:00,
2013-07-12 11:18:00,84.9,41.9,29.88,ENE,68,6.5,6.5,22,0.00,,SKC,0.00,VWS V14.01,2013-07-12 08:18:00,
2013-07-12 11:23:00,85.3,42.2,29.88,ENE,68,5.4,5.4,22,0.00,,SKC,0.00,VWS V14.01,2013-07-12 08:23:00,
2013-07-12 11:28:00,86.0,41.6,29.88,ENE,68,7.6,7.6,21,0.00,,SKC,0.00,VWS V14.01,2013-07-12 08:28:00,
2013-07-12 11:33:00,86.2,41.7,29.88,NE,45,5.6,6.3,21,0.00,,SKC,0.00,VWS V14.01,2013-07-12 08:33:00,
2013-07-12 11:39:00,86.2,40.5,29.88,NE,45,2.7,4.3,20,0.00,,SKC,0.00,VWS V14.01,2013-07-12 08:39:00,
2013-07-12 11:44:00,86.7,40.9,29.88,ENE,68,5.4,5.4,20,0.00,,SKC,0.00,VWS V14.01,2013-07-12 08:44:00,
2013-07-12 11:49:00,86.2,39.1,29.88,ENE,68,6.7,6.7,19,0.00,,SKC,0.00,VWS V14.01,2013-07-12 08:49:00,
2013-07-12 11:54:00,86.7,39.6,29.88,NNE,22,3.8,4.9,19,0.00,,SKC,0.00,VWS V14.01,2013-07-12 08:54:00,
2013-07-12 11:59:00,87.1,39.9,29.88,ENE,68,7.8,7.8,19,0.00,,SKC,0.00,VWS V14.01,2013-07-12 08:59:00,
2013-07-12 12:04:00,87.6,40.3,29.88,ENE,68,6.9,6.9,19,0.00,,SKC,0.00,VWS V14.01,2013-07-12 09:04:00,
2013-07-12 12:09:00,87.8,40.5,29.88,East,90,3.8,6.0,19,0.00,,SKC,0.00,VWS V14.01,2013-07-12 09:09:00,
2013-07-12 12:14:00,87.6,40.3,29.88,ENE,68,7.4,8.1,19,0.00,,SKC,0.00,VWS V14.01,2013-07-12 09:14:00,
2013-07-12 12:19:00,87.4,38.8,29.88,NE,45,12.3,12.3,18,0.00,,SKC,0.00,VWS V14.01,2013-07-12 09:19:00,
2013-07-12 12:24:00,87.4,38.8,29.88,East,90,4.0,4.0,18,0.00,,SKC,0.00,VWS V14.01,2013-07-12 09:24:00,
2013-07-12 12:29:00,87.1,38.5,29.88,East,90,10.1,10.1,18,0.00,,SKC,0.00,VWS V14.01,2013-07-12 09:29:00,
2013-07-12 12:34:00,87.1,38.5,29.88,NE,45,8.1,9.8,18,0.00,,SKC,0.00,VWS V14.01,2013-07-12 09:34:00,
2013-07-12 12:39:00,87.6,38.9,29.88,NNE,22,4.7,9.6,18,0.00,,SKC,0.00,VWS V14.01,2013-07-12 09:39:00,
2013-07-12 12:44:00,87.6,38.9,29.88,East,90,4.9,4.9,18,0.00,,SKC,0.00,VWS V14.01,2013-07-12 09:44:00,
2013-07-12 12:49:00,88.3,39.5,29.88,NNE,22,6.0,7.6,18,0.00,,SKC,0.00,VWS V14.01,2013-07-12 09:49:00,
2013-07-12 12:55:00,88.5,39.7,29.88,East,90,8.1,8.1,18,0.00,,SKC,0.00,VWS V14.01,2013-07-12 09:55:00,
2013-07-12 13:00:00,88.9,35.3,29.88,ENE,68,5.4,5.4,15,0.00,,SKC,0.00,VWS V14.01,2013-07-12 10:00:00,
2013-07-12 13:05:00,89.4,35.7,29.88,ENE,68,7.6,7.6,15,0.00,,SKC,0.00,VWS V14.01,2013-07-12 10:05:00,
2013-07-12 13:10:00,89.6,35.9,29.88,NE,45,9.8,9.8,15,0.00,,SKC,0.00,VWS V14.01,2013-07-12 10:10:00,
2013-07-12 13:15:00,89.2,35.6,29.88,ENE,68,4.7,4.9,15,0.00,,SKC,0.00,VWS V14.01,2013-07-12 10:15:00,
2013-07-12 13:20:00,89.4,35.7,29.88,ENE,68,10.5,10.5,15,0.00,,SKC,0.00,VWS V14.01,2013-07-12 10:20:00,
2013-07-12 13:25:00,89.4,35.7,29.88,ENE,68,3.8,5.8,15,0.00,,SKC,0.00,VWS V14.01,2013-07-12 10:25:00,
2013-07-12 13:30:00,89.2,35.6,29.88,ENE,68,12.8,12.8,15,0.00,,SKC,0.00,VWS V14.01,2013-07-12 10:30:00,
2013-07-12 13:35:00,88.7,35.2,29.88,ENE,68,6.9,6.9,15,0.00,,SKC,0.00,VWS V14.01,2013-07-12 10:35:00,
2013-07-12 13:40:00,89.6,35.9,29.88,East,90,5.6,6.5,15,0.00,,SKC,0.00,VWS V14.01,2013-07-12 10:40:00,
2013-07-12 13:45:00,89.6,35.9,29.88,ESE,112,3.8,4.9,15,0.00,,SKC,0.00,VWS V14.01,2013-07-12 10:45:00,
2013-07-12 13:50:00,89.8,30.5,29.85,NE,45,3.4,5.4,12,0.00,,SKC,0.00,VWS V14.01,2013-07-12 10:50:00,
2013-07-12 13:55:00,89.4,35.7,29.85,East,90,7.4,7.4,15,0.00,,SKC,0.00,VWS V14.01,2013-07-12 10:55:00,
2013-07-12 14:01:00,89.4,35.7,29.85,NE,45,6.0,6.0,15,0.00,,SKC,0.00,VWS V14.01,2013-07-12 11:01:00,
2013-07-12 14:06:00,89.4,35.7,29.85,ESE,112,5.8,5.8,15,0.00,,SKC,0.00,VWS V14.01,2013-07-12 11:06:00,
2013-07-12 14:11:00,89.4,35.7,29.85,ENE,68,6.5,6.5,15,0.00,,SKC,0.00,VWS V14.01,2013-07-12 11:11:00,
2013-07-12 14:16:00,89.6,35.9,29.85,East,90,5.8,5.8,15,0.00,,SKC,0.00,VWS V14.01,2013-07-12 11:16:00,
2013-07-12 14:21:00,90.0,36.2,29.85,East,90,12.8,12.8,15,0.00,,SKC,0.00,VWS V14.01,2013-07-12 11:21:00,
2013-07-12 14:26:00,90.5,31.0,29.85,NE,45,4.9,4.9,12,0.00,,SKC,0.00,VWS V14.01,2013-07-12 11:26:00,
2013-07-12 14:31:00,90.0,36.2,29.85,East,90,8.5,8.5,15,0.00,,SKC,0.00,VWS V14.01,2013-07-12 11:31:00,
2013-07-12 14:36:00,90.0,30.6,29.85,ENE,68,8.5,8.5,12,0.00,,SKC,0.00,VWS V14.01,2013-07-12 11:36:00,
2013-07-12 14:41:00,89.4,35.7,29.85,ENE,68,6.0,10.3,15,0.00,,SKC,0.00,VWS V14.01,2013-07-12 11:41:00,
2013-07-12 14:46:00,89.2,35.6,29.85,East,90,10.1,10.1,15,0.00,,SKC,0.00,VWS V14.01,2013-07-12 11:46:00,
2013-07-12 14:51:00,88.9,35.3,29.85,East,90,13.2,13.2,15,0.00,,SKC,0.00,VWS V14.01,2013-07-12 11:51:00,
2013-07-12 14:56:00,88.5,35.0,29.85,East,90,7.6,13.2,15,0.00,,SKC,0.00,VWS V14.01,2013-07-12 11:56:00,
2013-07-12 15:01:00,88.7,35.2,29.85,East,90,9.4,10.3,15,0.00,,SKC,0.00,VWS V14.01,2013-07-12 12:01:00,
2013-07-12 15:06:00,89.2,32.0,29.85,ESE,112,6.5,6.5,13,0.00,,SKC,0.00,VWS V14.01,2013-07-12 12:06:00,
2013-07-12 15:12:00,89.4,35.7,29.85,East,90,7.4,7.6,15,0.00,,SKC,0.00,VWS V14.01,2013-07-12 12:12:00,
2013-07-12 15:17:00,89.1,31.9,29.85,NE,45,12.8,12.8,13,0.00,,SKC,0.00,VWS V14.01,2013-07-12 12:17:00,
2013-07-12 15:22:00,89.4,32.2,29.85,ESE,112,10.5,10.5,13,0.00,,SKC,0.00,VWS V14.01,2013-07-12 12:22:00,
2013-07-12 15:27:00,89.2,32.0,29.85,ENE,68,8.5,8.5,13,0.00,,SKC,0.00,VWS V14.01,2013-07-12 12:27:00,
2013-07-12 15:32:00,90.3,30.9,29.85,ENE,68,7.8,10.5,12,0.00,,SKC,0.00,VWS V14.01,2013-07-12 12:32:00,
2013-07-12 15:37:00,90.1,30.7,29.85,ENE,68,8.5,8.5,12,0.00,,SKC,0.00,VWS V14.01,2013-07-12 12:37:00,
2013-07-12 15:42:00,90.0,30.6,29.85,ENE,68,9.8,9.8,12,0.00,,SKC,0.00,VWS V14.01,2013-07-12 12:42:00,
2013-07-12 15:48:00,89.4,32.2,29.85,ENE,68,9.6,9.6,13,0.00,,SKC,0.00,VWS V14.01,2013-07-12 12:48:00,
2013-07-12 15:53:00,89.6,30.3,29.85,ENE,68,8.1,8.1,12,0.00,,SKC,0.00,VWS V14.01,2013-07-12 12:53:00,
2013-07-12 15:58:00,90.0,30.6,29.85,ESE,112,9.8,9.8,12,0.00,,SKC,0.00,VWS V14.01,2013-07-12 12:58:00,
2013-07-12 16:03:00,89.6,30.3,29.85,ENE,68,8.5,8.5,12,0.00,,SKC,0.00,VWS V14.01,2013-07-12 13:03:00,
2013-07-12 16:08:00,89.4,32.2,29.85,ENE,68,8.5,8.5,13,0.00,,SKC,0.00,VWS V14.01,2013-07-12 13:08:00,
2013-07-12 16:13:00,89.8,30.5,29.85,East,90,6.5,7.6,12,0.00,,SKC,0.00,VWS V14.01,2013-07-12 13:13:00,
2013-07-12 16:18:00,88.9,31.7,29.85,ENE,68,10.3,10.3,13,0.00,,SKC,0.00,VWS V14.01,2013-07-12 13:18:00,
2013-07-12 16:23:00,89.2,32.0,29.85,East,90,7.8,7.8,13,0.00,,SKC,0.00,VWS V14.01,2013-07-12 13:23:00,
2013-07-12 16:28:00,89.6,30.3,29.85,East,90,7.8,7.8,12,0.00,,SKC,0.00,VWS V14.01,2013-07-12 13:28:00,
2013-07-12 16:33:00,89.8,30.5,29.85,NE,45,4.9,4.9,12,0.00,,SKC,0.00,VWS V14.01,2013-07-12 13:33:00,
2013-07-12 16:39:00,90.0,30.6,29.85,ENE,68,7.8,11.0,12,0.00,,SKC,0.00,VWS V14.01,2013-07-12 13:39:00,
2013-07-12 16:44:00,89.6,30.3,29.85,ENE,68,7.4,12.8,12,0.00,,SKC,0.00,VWS V14.01,2013-07-12 13:44:00,
2013-07-12 16:49:00,90.0,30.6,29.85,East,90,10.3,12.8,12,0.00,,SKC,0.00,VWS V14.01,2013-07-12 13:49:00,
2013-07-12 16:54:00,89.4,32.2,29.85,ENE,68,3.8,12.8,13,0.00,,SKC,0.00,VWS V14.01,2013-07-12 13:54:00,
2013-07-12 16:59:00,89.6,30.3,29.85,NE,45,7.6,12.8,12,0.00,,SKC,0.00,VWS V14.01,2013-07-12 13:59:00,
2013-07-12 17:05:00,89.8,30.5,29.85,ENE,68,8.5,12.8,12,0.00,,SKC,0.00,VWS V14.01,2013-07-12 14:05:00,
2013-07-12 17:10:00,89.2,32.0,29.85,ENE,68,8.5,12.8,13,0.00,,SKC,0.00,VWS V14.01,2013-07-12 14:10:00,
2013-07-12 17:15:00,89.6,30.3,29.85,ENE,68,10.3,12.8,12,0.00,,SKC,0.00,VWS V14.01,2013-07-12 14:15:00,
2013-07-12 17:20:00,89.1,31.9,29.85,ENE,68,10.5,12.8,13,0.00,,SKC,0.00,VWS V14.01,2013-07-12 14:20:00,
2013-07-12 17:25:00,89.4,32.2,29.85,ENE,68,12.5,12.5,13,0.00,,SKC,0.00,VWS V14.01,2013-07-12 14:25:00,
2013-07-12 17:30:00,88.7,31.6,29.85,ENE,68,5.8,7.4,13,0.00,,SKC,0.00,VWS V14.01,2013-07-12 14:30:00,
2013-07-12 17:36:00,88.9,31.7,29.85,ENE,68,6.0,6.3,13,0.00,,SKC,0.00,VWS V14.01,2013-07-12 14:36:00,
2013-07-12 17:41:00,88.5,31.5,29.85,ENE,68,10.5,12.3,13,0.00,,SKC,0.00,VWS V14.01,2013-07-12 14:41:00,
2013-07-12 17:46:00,88.7,31.6,29.85,ENE,68,5.4,7.6,13,0.00,,SKC,0.00,VWS V14.01,2013-07-12 14:46:00,
2013-07-12 17:51:00,88.9,31.7,29.85,ENE,68,6.5,7.8,13,0.00,,SKC,0.00,VWS V14.01,2013-07-12 14:51:00,
2013-07-12 17:56:00,88.9,31.7,29.85,ENE,68,6.0,7.6,13,0.00,,SKC,0.00,VWS V14.01,2013-07-12 14:56:00,
2013-07-12 18:01:00,88.9,31.7,29.85,ENE,68,5.6,7.2,13,0.00,,SKC,0.00,VWS V14.01,2013-07-12 15:01:00,
2013-07-12 18:06:00,88.9,31.7,29.85,ESE,112,7.8,8.5,13,0.00,,SKC,0.00,VWS V14.01,2013-07-12 15:06:00,
2013-07-12 18:11:00,88.9,31.7,29.85,ENE,68,5.6,7.8,13,0.00,,SKC,0.00,VWS V14.01,2013-07-12 15:11:00,
2013-07-12 18:16:00,88.5,31.5,29.85,East,90,8.5,8.5,13,0.00,,SKC,0.00,VWS V14.01,2013-07-12 15:16:00,
2013-07-12 18:21:00,88.2,31.2,29.85,East,90,8.5,8.5,13,0.00,,SKC,0.00,VWS V14.01,2013-07-12 15:21:00,
2013-07-12 18:26:00,88.0,31.0,29.85,ENE,68,11.0,11.0,13,0.00,,SKC,0.00,VWS V14.01,2013-07-12 15:26:00,
2013-07-12 18:31:00,87.8,30.9,29.85,East,90,8.1,8.1,13,0.00,,SKC,0.00,VWS V14.01,2013-07-12 15:31:00,
2013-07-12 18:36:00,88.2,31.2,29.85,ENE,68,8.1,8.1,13,0.00,,SKC,0.00,VWS V14.01,2013-07-12 15:36:00,
2013-07-12 18:41:00,87.6,30.8,29.85,ENE,68,6.0,6.5,13,0.00,,SKC,0.00,VWS V14.01,2013-07-12 15:41:00,
2013-07-12 18:46:00,87.1,30.3,29.85,ENE,68,9.6,9.8,13,0.00,,SKC,0.00,VWS V14.01,2013-07-12 15:46:00,
2013-07-12 18:51:00,87.1,30.3,29.85,NE,45,5.4,9.6,13,0.00,,SKC,0.00,VWS V14.01,2013-07-12 15:51:00,
2013-07-12 18:56:00,86.9,30.2,29.85,ENE,68,9.6,9.6,13,0.00,,SKC,0.00,VWS V14.01,2013-07-12 15:56:00,
2013-07-12 19:01:00,86.9,30.2,29.85,ENE,68,8.7,8.7,13,0.00,,SKC,0.00,VWS V14.01,2013-07-12 16:01:00,
2013-07-12 19:06:00,86.4,29.8,29.85,East,90,7.8,7.8,13,0.00,,SKC,0.00,VWS V14.01,2013-07-12 16:06:00,
2013-07-12 19:11:00,86.7,30.0,29.85,East,90,9.0,9.0,13,0.00,,SKC,0.00,VWS V14.01,2013-07-12 16:11:00,
2013-07-12 19:16:00,86.2,29.6,29.85,East,90,9.6,9.6,13,0.00,,SKC,0.00,VWS V14.01,2013-07-12 16:16:00,
2013-07-12 19:22:00,86.2,29.6,29.85,ENE,68,6.9,9.6,13,0.00,,SKC,0.00,VWS V14.01,2013-07-12 16:22:00,
2013-07-12 19:27:00,85.6,29.2,29.85,NE,45,5.6,5.6,13,0.00,,SKC,0.00,VWS V14.01,2013-07-12 16:27:00,
2013-07-12 19:32:00,85.6,29.2,29.85,ENE,68,6.3,6.3,13,0.00,,SKC,0.00,VWS V14.01,2013-07-12 16:32:00,
2013-07-12 19:37:00,85.1,28.8,29.85,ENE,68,5.6,7.6,13,0.00,,SKC,0.00,VWS V14.01,2013-07-12 16:37:00,
2013-07-12 19:42:00,85.1,28.8,29.85,NNE,22,5.8,5.8,13,0.00,,SKC,0.00,VWS V14.01,2013-07-12 16:42:00,
2013-07-12 19:47:00,84.7,28.5,29.85,ENE,68,4.3,4.3,13,0.00,,SKC,0.00,VWS V14.01,2013-07-12 16:47:00,
2013-07-12 19:52:00,84.4,28.2,29.85,ENE,68,5.4,5.4,13,0.00,,SKC,0.00,VWS V14.01,2013-07-12 16:52:00,
2013-07-12 19:57:00,84.0,29.8,29.85,NNE,22,5.4,5.4,14,0.00,,SKC,0.00,VWS V14.01,2013-07-12 16:57:00,
2013-07-12 20:02:00,83.5,29.3,29.85,East,90,4.9,7.8,14,0.00,,SKC,0.00,VWS V14.01,2013-07-12 17:02:00,
2013-07-12 20:08:00,82.9,28.9,29.85,East,90,6.5,6.5,14,0.00,,SKC,0.00,VWS V14.01,2013-07-12 17:08:00,
2013-07-12 20:13:00,82.6,28.6,29.85,ENE,68,5.4,5.4,14,0.00,,SKC,0.00,VWS V14.01,2013-07-12 17:13:00,
2013-07-12 20:18:00,82.2,28.3,29.85,ENE,68,4.9,4.9,14,0.00,,SKC,0.00,VWS V14.01,2013-07-12 17:18:00,
2013-07-12 20:23:00,81.9,28.0,29.85,East,90,4.0,4.0,14,0.00,,SKC,0.00,VWS V14.01,2013-07-12 17:23:00,
2013-07-12 20:28:00,81.7,27.9,29.85,NE,45,3.8,3.8,14,0.00,,SKC,0.00,VWS V14.01,2013-07-12 17:28:00,
2013-07-12 20:34:00,81.1,27.5,29.85,East,90,4.9,4.9,14,0.00,,SKC,0.00,VWS V14.01,2013-07-12 17:34:00,
2013-07-12 20:39:00,80.8,27.2,29.88,ENE,68,4.5,4.5,14,0.00,,SKC,0.00,VWS V14.01,2013-07-12 17:39:00,
2013-07-12 20:44:00,80.2,28.4,29.88,ENE,68,4.3,5.4,15,0.00,,SKC,0.00,VWS V14.01,2013-07-12 17:44:00,
2013-07-12 20:50:00,79.9,28.1,29.88,East,90,5.6,5.6,15,0.00,,SKC,0.00,VWS V14.01,2013-07-12 17:50:00,
2013-07-12 20:55:00,79.5,30.9,29.88,East,90,5.8,5.8,17,0.00,,SKC,0.00,VWS V14.01,2013-07-12 17:55:00,
2013-07-12 21:00:00,79.2,30.6,29.88,ENE,68,4.9,6.3,17,0.00,,SKC,0.00,VWS V14.01,2013-07-12 18:00:00,
2013-07-12 21:06:00,78.8,30.4,29.88,ENE,68,5.8,5.8,17,0.00,,SKC,0.00,VWS V14.01,2013-07-12 18:06:00,
2013-07-12 21:11:00,78.4,31.5,29.85,NE,45,6.3,6.3,18,0.00,,SKC,0.00,VWS V14.01,2013-07-12 18:11:00,
2013-07-12 21:16:00,77.9,31.0,29.85,East,90,3.8,3.8,18,0.00,,SKC,0.00,VWS V14.01,2013-07-12 18:16:00,
2013-07-12 21:21:00,77.5,33.3,29.88,NE,45,3.8,3.8,20,0.00,,SKC,0.00,VWS V14.01,2013-07-12 18:21:00,
2013-07-12 21:26:00,77.4,33.2,29.88,ENE,68,4.9,4.9,20,0.00,,SKC,0.00,VWS V14.01,2013-07-12 18:26:00,
2013-07-12 21:31:00,77.4,33.2,29.88,NE,45,4.7,4.7,20,0.00,,SKC,0.00,VWS V14.01,2013-07-12 18:31:00,
2013-07-12 21:36:00,77.4,33.2,29.88,ENE,68,4.0,4.0,20,0.00,,SKC,0.00,VWS V14.01,2013-07-12 18:36:00,
2013-07-12 21:42:00,76.8,34.0,29.88,East,90,4.3,4.3,21,0.00,,SKC,0.00,VWS V14.01,2013-07-12 18:42:00,
2013-07-12 21:47:00,76.3,33.5,29.88,East,90,4.3,5.6,21,0.00,,SKC,0.00,VWS V14.01,2013-07-12 18:47:00,
2013-07-12 21:52:00,76.1,33.4,29.88,ENE,68,4.9,5.8,21,0.00,,SKC,0.00,VWS V14.01,2013-07-12 18:52:00,
2013-07-12 21:57:00,75.9,33.2,29.88,NNE,22,4.0,4.3,21,0.00,,SKC,0.00,VWS V14.01,2013-07-12 18:57:00,
2013-07-12 22:03:00,75.7,34.2,29.88,ENE,68,4.3,4.3,22,0.00,,SKC,0.00,VWS V14.01,2013-07-12 19:03:00,
2013-07-12 22:08:00,75.6,34.1,29.91,ENE,68,4.7,4.7,22,0.00,,SKC,0.00,VWS V14.01,2013-07-12 19:08:00,
2013-07-12 22:13:00,75.4,33.9,29.91,ENE,68,4.0,4.0,22,0.00,,SKC,0.00,VWS V14.01,2013-07-12 19:13:00,
2013-07-12 22:18:00,75.0,34.7,29.91,East,90,3.4,4.0,23,0.00,,SKC,0.00,VWS V14.01,2013-07-12 19:18:00,
2013-07-12 22:23:00,74.8,34.6,29.91,ENE,68,4.9,4.9,23,0.00,,SKC,0.00,VWS V14.01,2013-07-12 19:23:00,
2013-07-12 22:28:00,74.7,35.5,29.91,East,90,5.8,6.3,24,0.00,,SKC,0.00,VWS V14.01,2013-07-12 19:28:00,
2013-07-12 22:33:00,74.5,35.4,29.91,East,90,4.9,4.9,24,0.00,,SKC,0.00,VWS V14.01,2013-07-12 19:33:00,
2013-07-12 22:38:00,74.5,35.4,29.91,ENE,68,2.7,3.1,24,0.00,,SKC,0.00,VWS V14.01,2013-07-12 19:38:00,
2013-07-12 22:44:00,74.3,35.2,29.91,East,90,2.0,2.0,24,0.00,,SKC,0.00,VWS V14.01,2013-07-12 19:44:00,
2013-07-12 22:49:00,74.3,35.2,29.91,ENE,68,1.6,2.5,24,0.00,,SKC,0.00,VWS V14.01,2013-07-12 19:49:00,
2013-07-12 22:54:00,73.9,34.9,29.91,ENE,68,2.7,2.9,24,0.00,,SKC,0.00,VWS V14.01,2013-07-12 19:54:00,
2013-07-12 22:59:00,73.6,35.6,29.91,ENE,68,2.5,2.5,25,0.00,,SKC,0.00,VWS V14.01,2013-07-12 19:59:00,
2013-07-12 23:05:00,73.4,35.5,29.91,ENE,68,2.5,2.7,25,0.00,,SKC,0.00,VWS V14.01,2013-07-12 20:05:00,
2013-07-12 23:10:00,73.4,35.5,29.91,SSE,158,2.0,2.0,25,0.00,,SKC,0.00,VWS V14.01,2013-07-12 20:10:00,
2013-07-12 23:15:00,73.0,36.2,29.91,East,90,1.6,2.2,26,0.00,,SKC,0.00,VWS V14.01,2013-07-12 20:15:00,
2013-07-12 23:21:00,73.0,37.1,29.91,ESE,112,0.0,0.0,27,0.00,,SKC,0.00,VWS V14.01,2013-07-12 20:21:00,
2013-07-12 23:26:00,72.9,37.0,29.91,ESE,112,1.3,2.0,27,0.00,,SKC,0.00,VWS V14.01,2013-07-12 20:26:00,
2013-07-12 23:31:00,73.0,37.1,29.91,East,90,1.3,1.3,27,0.00,,SKC,0.00,VWS V14.01,2013-07-12 20:31:00,
2013-07-12 23:36:00,72.9,37.0,29.91,East,90,2.2,2.2,27,0.00,,SKC,0.00,VWS V14.01,2013-07-12 20:36:00,
2013-07-12 23:41:00,72.9,37.9,29.91,East,90,2.0,2.0,28,0.00,,SKC,0.00,VWS V14.01,2013-07-12 20:41:00,
2013-07-12 23:47:00,72.7,37.7,29.91,East,90,2.0,2.9,28,0.00,,SKC,0.00,VWS V14.01,2013-07-12 20:47:00,
2013-07-12 23:53:00,72.1,38.2,29.91,South,180,1.3,1.3,29,0.00,,SKC,0.00,VWS V14.01,2013-07-12 20:53:00,
2013-07-12 23:58:00,72.1,39.0,29.91,East,90,1.3,1.3,30,0.00,,SKC,0.00,VWS V14.01,2013-07-12 20:58:00,